Bar Harbor, ME

1:48 AM EDT on October 23, 2019 (GMT -0400)
Hancock County-Bar Harbor

Weather History for KBHB - August, 2019

Change the Weather History Date:

Friday, August 9, 2019

  Actual Average Record
Temperature  
Mean Temperature 70 °F -  
Max Temperature 79 °F 79 °F 90 °F (1949)
Min Temperature 60 °F 57 °F 47 °F (1948)
Cooling Degree Days 4    
Growing Degree Days 20 (Base 50)    
Moisture  
Dew Point 62 °F    
Average Humidity 86    
Maximum Humidity 100    
Minimum Humidity 46    
Precipitation  
Precipitation 0.13 in - - ()
Sea Level Pressure  
Sea Level Pressure 29.62 in    
Wind  
Wind Speed 3 mph (WSW)    
Max Wind Speed 17 mph    
Max Gust Speed 22 mph    
Visibility 6 miles    
Events Fog    
Averages and records for this station are not official NWS values.
T = Trace of Precipitation, MM = Missing Value Source: NWS Daily Summary

Daily Weather History Graph

Daily Weather History Graph

Search for Another Location

Airport or City:

Astronomy

Aug. 09, 2019 Rise Set
Actual Time 5:29 AM EDT 7:48 PM EDT
Civil Twilight 4:56 AM EDT 8:20 PM EDT
Nautical Twilight 4:16 AM EDT 9:00 PM EDT
Astronomical Twilight 3:31 AM EDT 9:44 PM EDT
Moon 3:28 PM EDT (8/9) 12:23 AM EDT (8/9)
Length of Visible Light 15h 23m
Length of Day
14h 18m
Waxing Gibbous, 70% of the Moon is Illuminated
Aug 9
Waxing Gibbous
Aug 15
Full
Aug 23
Last Quarter
Aug 30
New
Sep 5
First Quarter

Hourly Weather History & Observations

Time (EDT) Temp. Dew Point Humidity Pressure Visibility Wind Dir Wind Speed Gust Speed Precip Events Conditions
12:56 AM 60.1 °F 60.1 °F 100% 29.60 in 0.2 mi Calm Calm - N/A Fog Fog
1:12 AM 60.8 °F 60.8 °F 100% 29.59 in 0.5 mi Calm Calm - N/A Fog Fog
1:56 AM 62.1 °F 62.1 °F 100% 29.58 in 0.2 mi Calm Calm - 0.01 in Fog Fog
2:10 AM 62.6 °F 62.6 °F 100% 29.58 in 0.5 mi Calm Calm - N/A Fog Fog
2:41 AM 62.6 °F 62.6 °F 100% 29.58 in 0.2 mi Calm Calm - N/A Fog Fog
2:56 AM 62.1 °F 62.1 °F 100% 29.58 in 0.2 mi Calm Calm - N/A Fog Fog
3:37 AM 62.6 °F 62.6 °F 100% 29.58 in 0.5 mi SE 3.5 mph - 0.01 in Fog Fog
3:56 AM 62.1 °F 62.1 °F 100% 29.58 in 0.5 mi SE 3.5 mph - 0.01 in Fog Fog
4:18 AM 62.6 °F 62.6 °F 100% 29.57 in 0.2 mi Calm Calm - N/A Fog Fog
4:56 AM 62.1 °F 62.1 °F 100% 29.58 in 0.2 mi Calm Calm - N/A Fog Fog
5:56 AM 62.1 °F 62.1 °F 100% 29.60 in 0.2 mi Calm Calm - 0.01 in Fog Fog
6:56 AM 63.0 °F 63.0 °F 100% 29.61 in 0.2 mi SW 5.8 mph - N/A Fog Fog
7:11 AM 62.6 °F 62.6 °F 100% 29.60 in 0.5 mi Calm Calm - N/A Fog Fog
7:26 AM 62.6 °F 62.6 °F 100% 29.61 in 1.0 mi Calm Calm - 0.01 in   Overcast
7:46 AM 64.4 °F 64.4 °F 100% 29.61 in 4.0 mi WSW 3.5 mph - 0.01 in   Overcast
7:56 AM 64.0 °F 64.0 °F 100% 29.62 in 5.0 mi Calm Calm - 0.01 in   Overcast
8:27 AM 64.4 °F 64.4 °F 100% 29.62 in 10.0 mi West 3.5 mph - N/A   Overcast
8:56 AM 66.9 °F 66.0 °F 97% 29.63 in 3.0 mi Variable 3.5 mph - N/A   Overcast
9:21 AM 69.8 °F 66.2 °F 88% 29.62 in 10.0 mi West 4.6 mph - 0.01 in   Scattered Clouds
9:56 AM 73.0 °F 64.0 °F 73% 29.64 in 10.0 mi Variable 6.9 mph - 0.01 in   Partly Cloudy
10:56 AM 73.9 °F 62.1 °F 66% 29.64 in 10.0 mi West 8.1 mph - 0.01 in   Clear
11:56 AM 75.9 °F 62.1 °F 62% 29.64 in 10.0 mi West 8.1 mph - N/A   Clear
12:56 PM 77.0 °F 61.0 °F 58% 29.63 in 10.0 mi WSW 8.1 mph - 0.01 in   Partly Cloudy
1:56 PM 78.1 °F 60.1 °F 54% 29.62 in 10.0 mi NW 9.2 mph - 0.01 in   Partly Cloudy
2:56 PM 78.1 °F 55.9 °F 46% 29.63 in 10.0 mi Variable 5.8 mph - 0.01 in   Clear
3:56 PM 79.0 °F 57.0 °F 47% 29.64 in 10.0 mi Variable 3.5 mph - 0.01 in   Partly Cloudy
4:56 PM 73.0 °F 61.0 °F 66% 29.64 in 10.0 mi SSW 17.3 mph 21.9 mph N/A   Clear
5:56 PM 71.1 °F 61.0 °F 70% 29.65 in 10.0 mi SSW 11.5 mph - 0.01 in   Clear
6:56 PM 69.1 °F 61.0 °F 75% 29.66 in 10.0 mi SSW 8.1 mph - N/A   Clear
7:56 PM 66.0 °F 61.0 °F 84% 29.67 in 10.0 mi South 6.9 mph - N/A   Clear
8:56 PM 64.0 °F 61.0 °F 90% 29.69 in 10.0 mi Calm Calm - 0.01 in   Clear
9:56 PM 64.9 °F 60.1 °F 84% 29.71 in 10.0 mi NNW 5.8 mph - N/A   Partly Cloudy
10:56 PM 63.0 °F 59.0 °F 87% 29.68 in 10.0 mi NE 5.8 mph - N/A   Clear
11:56 PM 60.1 °F 57.9 °F 93% 29.69 in 10.0 mi NW 3.5 mph - 0.01 in   Clear